Regional Weather Roundup
Issued by NWS Columbia, SC

Home | Current Version | Previous Version | Text Only | Print | Product List | Glossary On
Versions: 1 2 3 4 5 6 7 8 9 10 11 12 13 14 15 16 17 18 19 20 21 22 23 24 25 26 27 28 29 30 31 32 33 34 35 36 37 38 39 40 41 42 43 44 45 46 47 48 49 50
000
ASUS42 KCAE 101010
RWRCAE
REGIONAL WEATHER ROUNDUP
NATIONAL WEATHER SERVICE COLUMBIA SC
500 AM EST WED FEB 10 2016

NOTE: "FAIR" INDICATES FEW OR NO CLOUDS BELOW 12,000 FEET WITH NO
SIGNIFICANT WEATHER AND/OR OBSTRUCTIONS TO VISIBILITY.

NOT ALL STATIONS ARE QUALITY CONTROLLED BY THE NATIONAL
WEATHER SERVICE. USE DATA WITH CAUTION...ESPECIALLY
DEWPOINT OBSERVATIONS.

SCZ001>056-GAZ040-063>065-077-101100-
...UPSTATE SOUTH CAROLINA...

CITY           SKY/WX    TMP DP  RH WIND       PRES   REMARKS
ANDERSON       CLEAR     25  11  55 W18G24    29.95R WCI  11
LIBERTY        SUNNY     23  12  63 W6        29.90R WCI  15
SPARTANBURG    CLEAR     23  14  68 SW5       29.91R WCI  17
CLEMSON        CLEAR     25  10  53 W15       29.94R WCI  13
GREENVILLE     CLEAR     24  12  60 W8        29.91R WCI  15
GREENWOOD      CLEAR     25  11  55 W9        29.97R WCI  15
GREER          CLEAR     22  14  71 W5        29.90R WCI  16
ROCK HILL      CLEAR     21  14  74 W5        29.91R WCI  15
CHESTER        SUNNY     25  16  68 CALM      29.92R
LAURENS        SUNNY     27  14  59 W3        29.93R


...CENTRAL SOUTH CAROLINA...

CITY           SKY/WX    TMP DP  RH WIND       PRES   REMARKS
COLUMBIA APT   CLEAR     28  13  53 W9        29.96S WCI  19
COLUMBIA OWENS CLEAR     29  13  51 W10       29.97S WCI  20
MCENTIRE ANGB  CLEAR     27  15  61 W8        29.96R WCI  18
ORANGEBURG     CLEAR     29  15  56 W9        29.98R WCI  20
SUMTER SHAW    CLEAR     28  16  60 W9        29.93R WCI  19
NEWBERRY       SUNNY     27  14  59 W9        29.97R WCI  17
BARNWELL       FAIR      32  19  59 W9        30.01R WCI  24
MANNING        FAIR      30  16  55 W6        29.97S WCI  24
CAMDEN           N/A     28  28 100 SW10      29.95R WCI  19
LANCASTER      SUNNY     25  16  68 SW5       29.93R WCI  19
WINNSBORO      SUNNY     27  18  69 W6        29.93R WCI  20


...EASTERN AND COASTAL SOUTH CAROLINA...

CITY           SKY/WX    TMP DP  RH WIND       PRES   REMARKS
MYRTLE BEACH   CLEAR     32  18  55 W13       29.97R WCI  22
N MYRTLE BCH   CLEAR     32  22  66 W8        29.94R WCI  25
MARION         FAIR      32  25  74 W13       29.95R WCI  22
HARTSVILLE     FAIR      28  23  80 SW6       29.93R WCI  22
FLORENCE       CLEAR     30  21  69 W9        29.95R WCI  22
DARLINGTON     PTCLDY    28  16  59 W6        29.95R WCI  22
CHARLESTON APT CLEAR     31  17  56 W9        30.00R WCI  23
MOUNT PLEASANT FAIR      32  19  59 W9        30.00R WCI  24
WALTERBORO     SUNNY     32  23  69 W9        30.01S WCI  24
BEAUFORT       CLEAR     32  19  58 W9        30.03S WCI  24


...EASTERN GEORGIA...

CITY           SKY/WX    TMP DP  RH WIND       PRES   REMARKS
AUGUSTA BUSH F CLEAR     27  17  66 W9        30.03R WCI  18
AUGUSTA DANIEL CLEAR     29  13  51 W10G22    30.01R WCI  20
THOMSON        CLOUDY    31  21  66 W8        30.05R WCI  23
WASHINGTON     CLOUDY    32  21  64 W9G18     30.00R WCI  24
CLAXTON        FAIR      31  25  79 SW8       30.06R WCI  23
SYLVANIA       SUNNY     32  24  73 W8        30.04S WCI  24
STATESBORO     CLEAR     33  20  59 W7        30.04S WCI  27
SAVANNAH       CLEAR     29  22  75 W7        30.05R WCI  22


...SOUTHERN NORTH CAROLINA...

CITY           SKY/WX    TMP DP  RH WIND       PRES   REMARKS
CHARLOTTE      CLEAR     23  12  62 CALM      29.90R
MONROE         CLEAR     22  14  71 SW6       29.90R WCI  14
WADESBORO      SUNNY     25  14  64 CALM      29.92R
ROCKINGHAM     SUNNY     25  16  69 SW6       29.91R WCI  18
RUTHERFORDTON  PTCLDY    19  14  83 CALM      29.88R
ASHEVILLE      CLEAR     18   7  62 N16G26    29.84R WCI   3

$$



USA.gov is the U.S. government's official web portal to all federal, state and local government web resources and services.